This demonstration page uses our WeatherBlox Daily Observations layout. Learn more.

Left ArrowRight Arrow

Hourly Observations for August 8, 2020

Temp ( °F °C ) Dew Point ( °F °C ) Humidity (%) Winds ( mph kmh ) Pressure ( in mb ) Visibility ( mi km ) Precip ( " mm )
12:53 am 00:53 Clear 77 25 73 22.8 88 88 S 8 13 29.85 1011 10 16 0.00 0.00
1:53 am 01:53 Clear 76 24.4 71 21.7 85 85 SSE 8 13 29.84 1011 10 16 0.00 0.00
2:53 am 02:53 Clear 74 23.3 70 21.1 88 88 SE 9 15 29.85 1011 10 16 0.00 0.00
3:53 am 03:53 Clear 73 22.8 70 21.1 90 90 SSE 8 13 29.85 1011 10 16 0.00 0.00
4:53 am 04:53 Clear 72 22.2 70 21.1 94 94 SE 7 11 29.84 1010 8 13 0.00 0.00
5:14 am 05:14 Mostly Clear with Mist and Fog 72 22.2 70 21.1 94 94 SE 6 9 29.82 1010 6 10 0.00 0.00
5:29 am 05:29 Mostly Cloudy with Mist and Fog 71 21.7 70 21.1 96 96 SE 5 7 29.82 1010 6 10 0.00 0.00
5:53 am 05:53 Cloudy with Mist and Fog 71 21.7 70 21.1 96 96 SSE 6 9 29.84 1010 5 8 0.00 0.00
6:16 am 06:16 Cloudy with Mist and Fog 71 21.7 70 21.1 96 96 SE 8 13 29.82 1010 2 3 0.00 0.00
6:40 am 06:40 Mostly Cloudy with Mist and Fog 72 22 70 21 94 94 SSE 8 13 29.83 1010 1 1 0.00 0.00
6:53 am 06:53 Mostly Cloudy with Fog 70 21.1 69 20.6 97 97 SSE 9 15 29.86 1011 1 1 0.00 0.00
7:42 am 07:42 Cloudy with Mist and Fog 70 21.1 70 21.1 100 100 SSE 7 11 29.85 1011 1 2 0.00 0.00
7:53 am 07:53 Cloudy with Mist and Fog 71 21.7 70 21.1 96 96 S 8 13 29.88 1012 2 2 0.00 0.00
8:06 am 08:06 Cloudy with Mist and Fog 71 21.7 70 21.1 96 96 SSE 10 17 29.85 1011 3 5 0.00 0.00
8:53 am 08:53 Cloudy 72 22.2 70 21.1 94 94 SSE 10 17 29.89 1012 7 11 0.00 0.00
9:23 am 09:23 Cloudy 74 23.3 70 21.1 88 88 SE 10 17 29.85 1011 9 14 0.00 0.00
9:53 am 09:53 Mostly Cloudy 75 23.9 70 21.1 84 84 SE 14 22 29.88 1012 10 16 0.00 0.00
10:14 am 10:14 Partly Cloudy 78 25.6 71 21.7 79 79 SSE 8 13 29.84 1010 10 16 0.00 0.00
10:53 am 10:53 Sunny 81 27.2 72 22.2 74 74 SE 7 11 29.88 1012 10 16 0.00 0.00
11:53 am 11:53 Sunny 84 28.9 74 23.3 72 72 ESE 9 15 29.88 1012 10 16 0.00 0.00
12:53 pm 12:53 Sunny 88 31.1 74 23.3 63 63 SE 13 20 29.86 1011 10 16 0.00 0.00
1:53 pm 13:53 Sunny 89 31.7 74 23.3 61 61 S 12 19 29.85 1011 10 16 0.00 0.00
2:53 pm 14:53 Sunny 90 32.2 74 23.3 59 59 SSE 14 22 29.85 1011 10 16 0.00 0.00
3:53 pm 15:53 Sunny 91 32.8 75 23.9 59 59 SSE 15 24 29.85 1011 10 16 0.00 0.00
4:53 pm 16:53 Sunny 92 33.3 74 23.3 56 56 S 14 22 29.84 1011 10 16 0.00 0.00
5:53 pm 17:53 Sunny 92 33.3 74 23.3 56 56 S 6 9 29.85 1011 10 16 0.00 0.00
6:53 pm 18:53 Sunny 92 33.3 72 22.2 52 52 SSE 9 15 29.83 1010 10 16 0.00 0.00
7:53 pm 19:53 Sunny 88 31.1 75 23.9 66 66 SSE 9 15 29.83 1010 10 16 0.00 0.00
8:53 pm 20:53 Clear 84 28.9 74 23.3 72 72 ESE 8 13 29.85 1011 10 16 0.00 0.00
9:53 pm 21:53 Clear 81 27.2 76 24.4 85 85 E 9 15 29.88 1012 10 16 0.00 0.00
10:53 pm 22:53 Clear 80 26.7 75 23.9 85 85 SE 10 17 29.82 1010 10 16 0.00 0.00
11:53 pm 23:53 Clear 81 27.2 72 22.2 74 74 SSE 5 7 29.87 1012 10 16 0.00 0.00

Powered by AerisWeather